Regional Weather Roundup
Issued by NWS Albany, NY

Home | Current Version | Previous Version | Text Only | Print | Product List | Glossary On
Versions: 1 2 3 4 5 6 7 8 9 10 11 12 13 14 15 16 17 18 19 20 21 22 23 24 25 26 27 28 29 30 31 32 33 34 35 36 37 38 39 40 41 42 43 44 45 46 47 48 49 50
000
ASUS41 KALY 010910
RWRALY

NEW YORK STATE HOURLY WEATHER ROUNDUP
NATIONAL WEATHER SERVICE ALBANY NY
400 AM EST SUN FEB 01 2015

NOTE: "FAIR" INDICATES FEW OR NO CLOUDS BELOW 12,000 FEET WITH NO
SIGNIFICANT WEATHER AND/OR NO OBSTRUCTIONS TO VISIBILITY.

NYZ032-033-038>043-046>054-057>066-NYZ062>081-011000-
EAST


CITY           SKY/WX    TMP DP  RH WIND       PRES   REMARKS
ALBANY         FLURRIES  15   7  70 CALM      30.13S
GLENS FALLS    CLOUDY     3  -4  72 CALM      30.12S
POUGHKEEPSIE   PTCLDY    18   6  59 SW5       30.15F WCI  11
MONTGOMERY     CLOUDY    18   7  62 SW9       30.14F WCI   7
WHITE PLAINS   CLEAR     17   5  59 W6        30.14S WCI   9
ISLIP          CLEAR     11   2  67 W6        30.17S WCI   1
NEW YORK CITY  PTCLDY    24   8  50 W9        30.20S WCI  14
CENTRAL PARK   MOCLDY    23   7  50 VRB3      30.21S
$$

NYZ005>009-017-018-044>046-055-056-011000-
CENTRAL


CITY           SKY/WX    TMP DP  RH WIND       PRES   REMARKS
FULTON         LGT SNOW  25  21  85 NW8       30.12R FOG     WCI  16
SYRACUSE       FLURRIES  24  21  88 W13       30.11S WCI  12
ROME           FLURRIES  13   9  84 CALM      30.14S
ELMIRA         CLOUDY    17  12  80 CALM      30.14S
BINGHAMTON     CLOUDY    17  11  77 W7        30.06S WCI   8
MONTICELLO     CLOUDY    16   9  73 W9        30.08S WCI   4
$$

NYZ026>034-041>043-011000-
NORTH


CITY           SKY/WX    TMP DP  RH WIND       PRES   REMARKS
WATERTOWN      CLOUDY    19  12  74 N16       30.16R WCI   4
FORT DRUM      NOT AVBL
MASSENA        PTCLDY     4   1  88 W6        30.18R WCI  -7
SARANAC LAKE   LGT SNOW  10   7  87 VRB3      29.98R FOG
PLATTSBURGH    FLURRIES   8   4  83 NW7       30.11R WCI  -3
$$

NYZ001>004-010>016-019>021-011000-
WEST


CITY           SKY/WX    TMP DP  RH WIND       PRES   REMARKS
NIAGARA FALLS  CLOUDY    26  22  84 W8        30.16R WCI  18
BUFFALO        FLURRIES  27  22  81 NW8       30.16R WCI  19
DUNKIRK        CLOUDY    29  23  78 W7        30.17S WCI  22
JAMESTOWN      CLOUDY    21  18  86 SW5       30.10S WCI  15
WELLSVILLE     CLOUDY    22  17  81 W7        30.08S WCI  13
ROCHESTER      CLOUDY    28  22  78 W8        30.15R WCI  20
PENN YAN       CLOUDY    28  21  75 W8        30.12S WCI  20
$$

             KEY
       WCI = WIND CHILL INDEX
       VSB = VISIBILITY
       HX  = HEAT INDEX
$$


USA.gov is the U.S. government's official web portal to all federal, state and local government web resources and services.